�N����,����,�~����,�C��,���x,�C��,����,���ϕ���,�ő�u�ԕ���,�ő厞����,���˗�,�I�_���x,�n�����x,�ő啗���N��,DTYPE
"21/04/03","00:10",0.0,12.6,75.9,1019.4,295.6,1.0,1.7,316.6,0.00,8.5,130.0,"00:02:22",1
"21/04/03","00:20",0.0,13.6,77.7,1019.9,94.7,0.5,1.4,311.4,0.00,9.8,130.0,"00:10:10",1
"21/04/03","00:30",0.0,14.0,78.4,1019.7,117.2,0.5,1.8,105.7,0.00,10.3,130.0,"00:23:28",1
"21/04/03","00:40",0.0,14.3,78.0,1019.7,91.8,0.5,1.6,138.6,0.00,10.6,130.0,"00:39:44",1
"21/04/03","00:50",0.0,14.4,77.2,1019.2,126.2,0.6,2.1,112.4,0.00,10.5,130.0,"00:40:08",1
"21/04/03","01:00",0.0,14.4,76.9,1019.2,88.2,0.6,1.8,111.6,0.00,10.4,130.0,"00:59:20",1
"21/04/03","01:10",0.0,13.9,76.5,1019.2,293.7,0.7,1.1,274.0,0.00,9.9,130.0,"01:06:08",1
"21/04/03","01:20",0.0,13.1,77.0,1019.2,297.8,1.2,2.0,300.7,0.00,9.2,130.0,"01:19:42",1
"21/04/03","01:30",0.0,12.6,78.0,1018.7,320.3,1.3,1.7,307.9,0.00,8.9,130.0,"01:20:08",1
"21/04/03","01:40",0.0,12.3,79.0,1018.7,287.7,1.0,1.4,312.1,0.00,8.8,130.0,"01:30:10",1
"21/04/03","01:50",0.0,12.2,80.2,1018.7,281.8,0.8,1.3,291.0,0.00,8.9,130.0,"01:43:14",1
"21/04/03","02:00",0.0,12.5,81.5,1018.2,301.7,1.6,2.1,303.7,0.00,9.5,130.0,"01:57:04",1
"21/04/03","02:10",0.0,12.6,82.5,1018.2,294.9,1.2,2.0,291.1,0.00,9.7,130.0,"02:03:54",1
"21/04/03","02:20",0.0,12.5,83.1,1018.2,289.6,1.1,1.4,313.6,0.00,9.8,130.0,"02:14:50",1
"21/04/03","02:30",0.0,12.8,83.8,1018.0,279.8,1.0,1.9,311.0,0.00,10.2,130.0,"02:24:52",1
"21/04/03","02:40",0.0,12.8,84.1,1018.2,296.4,1.2,2.0,301.7,0.00,10.2,130.0,"02:30:34",1
"21/04/03","02:50",0.0,12.7,84.6,1017.8,293.5,1.1,2.0,298.6,0.00,10.2,130.0,"02:49:30",1
"21/04/03","03:00",0.0,12.6,84.9,1018.0,288.8,1.0,1.8,296.7,0.00,10.2,130.0,"02:52:08",1
"21/04/03","03:10",0.0,12.4,85.2,1018.0,290.1,1.3,1.6,313.2,0.00,10.0,130.0,"03:07:24",1
"21/04/03","03:20",0.0,12.2,85.6,1018.0,298.0,1.0,1.6,321.7,0.00,9.9,130.0,"03:18:24",1
"21/04/03","03:30",0.0,12.2,86.0,1017.5,308.2,1.1,1.4,311.1,0.00,10.0,130.0,"03:25:52",1
"21/04/03","03:40",0.0,12.2,86.3,1017.8,293.8,1.0,1.4,314.5,0.00,10.0,130.0,"03:31:30",1
"21/04/03","03:50",0.0,12.6,86.7,1017.5,280.8,1.0,2.4,267.7,0.00,10.5,130.0,"03:40:34",1
"21/04/03","04:00",0.0,12.7,86.9,1017.5,315.1,0.8,1.7,326.0,0.00,10.6,130.0,"03:52:24",1
"21/04/03","04:10",0.0,12.6,87.1,1017.8,300.0,0.6,0.9,310.0,0.00,10.6,130.0,"04:06:28",1
"21/04/03","04:20",0.0,12.5,87.3,1017.5,304.1,1.0,1.9,299.9,0.00,10.5,130.0,"04:18:22",1
"21/04/03","04:30",0.0,12.4,87.9,1017.5,270.6,1.2,1.9,265.0,0.00,10.5,130.0,"04:28:36",1
"21/04/03","04:40",0.0,12.7,88.2,1017.5,300.5,1.0,1.9,315.9,0.00,10.8,130.0,"04:30:24",1
"21/04/03","04:50",0.0,12.9,88.4,1017.3,298.4,1.0,1.3,297.1,0.00,11.1,130.0,"04:45:12",1
"21/04/03","05:00",0.0,13.2,88.6,1017.3,280.0,0.7,1.2,309.4,0.00,11.4,130.0,"04:51:52",1
"21/04/03","05:10",0.0,14.3,88.6,1017.5,123.9,1.2,3.4,124.5,0.00,12.5,130.0,"05:08:56",1
"21/04/03","05:20",0.0,14.8,88.0,1017.5,125.2,1.1,2.8,115.8,0.00,12.9,130.0,"05:18:00",1
"21/04/03","05:30",0.0,15.1,87.3,1017.5,124.0,1.1,2.4,114.3,0.00,13.0,130.0,"05:20:16",1
"21/04/03","05:40",0.0,15.4,86.6,1018.0,94.9,1.7,4.7,117.2,0.00,13.2,130.0,"05:33:28",1
"21/04/03","05:50",0.0,15.4,85.9,1017.8,105.4,1.7,4.8,130.5,0.00,13.1,130.0,"05:43:12",1
"21/04/03","06:00",0.0,15.5,85.4,1017.8,95.6,1.5,4.0,108.3,0.00,13.1,130.0,"05:52:56",1
"21/04/03","06:10",0.0,15.5,85.0,1018.0,89.3,1.1,3.3,116.7,0.00,13.0,130.0,"06:04:48",1
"21/04/03","06:20",0.0,15.5,84.6,1018.0,79.3,0.7,1.8,83.9,0.00,13.0,130.0,"06:12:24",1
"21/04/03","06:30",0.0,15.5,84.3,1018.0,40.3,0.5,1.3,134.0,0.00,12.9,130.0,"06:26:08",1
"21/04/03","06:40",0.0,15.5,83.9,1018.2,62.1,0.5,1.6,105.9,0.00,12.8,130.0,"06:30:32",1
"21/04/03","06:50",0.0,15.6,83.6,1018.2,339.2,0.5,1.6,36.2,0.00,12.9,130.0,"06:40:48",1
"21/04/03","07:00",0.0,15.6,83.4,1018.0,70.0,0.5,1.8,113.7,0.00,12.8,130.0,"06:56:00",1
"21/04/03","07:10",0.0,15.7,83.1,1017.8,94.4,0.7,1.9,104.6,0.00,12.9,130.0,"07:04:56",1
"21/04/03","07:20",0.0,15.7,82.8,1018.0,102.5,0.8,3.6,115.2,0.00,12.8,130.0,"07:16:08",1
"21/04/03","07:30",0.0,15.8,82.6,1017.5,107.3,0.8,2.0,113.1,0.00,12.9,130.0,"07:21:28",1
"21/04/03","07:40",0.0,15.7,82.5,1017.5,112.3,0.5,1.3,107.9,0.00,12.8,130.0,"07:37:36",1
"21/04/03","07:50",0.0,15.9,82.3,1017.8,117.5,1.0,2.4,122.3,0.00,12.9,130.0,"07:46:00",1
"21/04/03","08:00",0.0,16.0,82.1,1018.0,118.7,1.2,2.9,116.4,0.00,13.0,130.0,"07:56:24",1
"21/04/03","08:10",0.0,16.0,81.7,1018.0,115.2,1.6,3.6,114.6,0.00,12.9,130.0,"08:04:24",1
"21/04/03","08:20",0.0,16.0,81.3,1018.0,108.7,2.0,4.1,112.4,0.00,12.8,130.0,"08:15:52",1
"21/04/03","08:30",0.0,16.0,81.2,1018.0,119.4,2.2,4.9,106.2,0.01,12.8,130.0,"08:23:36",1
"21/04/03","08:40",0.0,16.0,81.4,1017.8,118.9,2.3,3.7,124.5,0.01,12.9,130.0,"08:31:12",1
"21/04/03","08:50",0.0,16.0,81.2,1017.5,118.8,2.3,4.5,131.3,0.01,12.8,130.0,"08:43:04",1
"21/04/03","09:00",0.0,16.1,80.8,1017.8,119.1,2.3,4.1,112.5,0.02,12.8,130.0,"08:56:24",1
"21/04/03","09:10",0.0,16.2,79.8,1017.8,118.8,2.7,5.0,121.7,0.03,12.8,130.0,"09:03:52",1
"21/04/03","09:20",0.0,16.4,78.8,1017.8,122.3,2.3,4.0,124.0,0.05,12.8,130.0,"09:13:44",1
"21/04/03","09:30",0.0,16.7,76.9,1017.8,125.4,3.2,6.2,134.1,0.08,12.7,130.0,"09:24:56",1
"21/04/03","09:40",0.0,16.7,75.1,1018.0,130.3,3.4,7.0,124.2,0.07,12.3,130.0,"09:35:20",1
"21/04/03","09:50",0.0,16.8,73.7,1017.8,141.2,2.8,6.2,126.1,0.07,12.1,130.0,"09:43:36",1
"21/04/03","10:00",0.0,16.8,73.0,1017.8,125.7,2.3,4.3,117.8,0.05,12.0,130.0,"09:50:32",1
"21/04/03","10:10",0.0,16.9,71.9,1017.5,145.3,2.1,4.5,137.2,0.04,11.8,130.0,"10:00:40",1
"21/04/03","10:20",0.0,17.0,70.8,1018.0,137.7,2.1,3.4,120.8,0.05,11.7,130.0,"10:14:16",1
"21/04/03","10:30",0.0,17.1,69.2,1017.8,158.9,2.0,3.7,150.1,0.05,11.5,130.0,"10:20:16",1
"21/04/03","10:40",0.0,17.2,67.9,1017.5,135.1,2.1,4.1,120.6,0.06,11.3,130.0,"10:38:16",1
"21/04/03","10:50",0.0,17.2,66.7,1017.8,138.7,2.1,4.3,112.9,0.05,11.0,130.0,"10:42:32",1
"21/04/03","11:00",0.0,17.3,66.0,1017.5,123.2,1.8,3.6,124.8,0.05,10.9,130.0,"10:56:32",1
"21/04/03","11:10",0.0,17.5,65.3,1017.1,131.0,1.7,3.5,107.6,0.06,11.0,130.0,"11:00:40",1
"21/04/03","11:20",0.0,17.8,64.9,1016.8,142.6,1.5,2.2,202.8,0.08,11.2,130.0,"11:11:36",1
"21/04/03","11:30",0.0,17.9,63.8,1016.8,133.2,2.1,4.3,125.6,0.11,11.0,130.0,"11:28:24",1
"21/04/03","11:40",0.0,18.2,64.0,1016.8,127.0,1.8,3.7,115.1,0.12,11.3,130.0,"11:31:12",1
"21/04/03","11:50",0.0,18.2,63.3,1016.4,125.2,2.1,3.6,121.7,0.10,11.2,130.0,"11:43:28",1
"21/04/03","12:00",0.0,18.4,63.2,1016.1,131.5,2.1,4.8,120.0,0.10,11.3,130.0,"11:50:48",1
"21/04/03","12:10",0.0,18.7,62.5,1016.1,151.1,1.3,3.1,163.0,0.12,11.4,130.0,"12:03:28",1
"21/04/03","12:20",0.0,19.0,62.2,1016.1,144.1,1.8,3.3,150.5,0.14,11.7,130.0,"12:17:12",1
"21/04/03","12:30",0.0,19.1,61.7,1015.6,154.9,1.7,3.2,131.6,0.17,11.6,130.0,"12:20:56",1
"21/04/03","12:40",0.0,19.3,61.4,1015.9,157.1,1.5,4.8,122.3,0.16,11.7,130.0,"12:36:40",1
"21/04/03","12:50",0.0,19.2,61.4,1015.2,146.6,1.5,3.3,112.0,0.13,11.6,130.0,"12:42:00",1
"21/04/03","13:00",0.0,19.4,61.0,1014.9,161.0,2.1,3.7,144.2,0.14,11.7,130.0,"12:56:24",1
"21/04/03","13:10",0.0,19.8,59.8,1014.7,158.8,1.8,2.9,199.3,0.23,11.8,130.0,"13:02:40",1
"21/04/03","13:20",0.0,19.8,60.0,1014.5,140.0,2.0,4.5,123.0,0.18,11.9,130.0,"13:10:40",1
"21/04/03","13:30",0.0,20.0,59.8,1014.2,107.8,1.5,3.2,123.0,0.20,12.0,130.0,"13:21:28",1
"21/04/03","13:40",0.0,19.8,61.0,1014.2,99.2,1.5,3.1,123.6,0.15,12.1,130.0,"13:33:20",1
"21/04/03","13:50",0.0,19.7,61.7,1014.0,95.8,1.1,2.6,108.1,0.14,12.2,130.0,"13:44:48",1
"21/04/03","14:00",0.0,20.2,61.0,1013.8,112.6,1.2,3.3,141.3,0.18,12.5,130.0,"13:52:48",1
"21/04/03","14:10",0.0,20.2,60.6,1013.5,48.4,1.5,3.4,350.1,0.21,12.4,130.0,"14:06:56",1
"21/04/03","14:20",0.0,20.3,59.3,1013.3,99.6,1.5,3.3,122.5,0.21,12.2,130.0,"14:17:28",1
"21/04/03","14:30",0.0,21.0,57.7,1013.0,161.9,1.6,3.4,105.8,0.27,12.4,130.0,"14:28:08",1
"21/04/03","14:40",0.0,20.5,59.2,1013.0,121.2,2.3,4.5,118.7,0.14,12.3,130.0,"14:30:16",1
"21/04/03","14:50",0.0,20.7,58.4,1012.8,132.4,2.3,5.0,122.9,0.24,12.3,130.0,"14:43:20",1
"21/04/03","15:00",0.0,21.2,57.7,1012.8,140.4,2.6,5.1,125.2,0.30,12.6,130.0,"14:59:52",1
"21/04/03","15:10",0.0,21.0,56.0,1012.6,137.5,3.0,7.7,138.5,0.23,11.9,130.0,"15:07:28",1
"21/04/03","15:20",0.0,21.7,56.0,1012.6,128.9,3.2,6.5,115.2,0.42,12.6,130.0,"15:16:16",1
"21/04/03","15:30",0.0,21.9,53.9,1012.3,163.1,3.0,5.1,164.3,0.45,12.2,130.0,"15:28:40",1
"21/04/03","15:40",0.0,21.6,53.4,1012.6,143.9,3.2,6.3,138.9,0.31,11.8,130.0,"15:38:32",1
"21/04/03","15:50",0.0,20.8,55.6,1012.8,134.3,2.5,4.7,109.9,0.13,11.6,130.0,"15:40:16",1
"21/04/03","16:00",0.0,20.5,56.5,1012.6,136.9,2.8,5.5,129.5,0.11,11.6,130.0,"15:55:52",1
"21/04/03","16:10",0.0,20.7,56.5,1012.1,127.5,2.5,4.2,106.9,0.14,11.8,130.0,"16:06:48",1
"21/04/03","16:20",0.0,20.7,54.4,1011.9,134.3,3.0,5.0,128.0,0.14,11.2,130.0,"16:15:44",1
"21/04/03","16:30",0.0,21.0,53.2,1012.1,130.3,2.3,4.8,149.3,0.18,11.2,130.0,"16:28:00",1
"21/04/03","16:40",0.0,20.8,51.4,1012.3,156.9,2.2,4.7,120.6,0.11,10.5,130.0,"16:36:32",1
"21/04/03","16:50",0.0,20.6,51.5,1012.6,145.3,2.3,4.9,126.5,0.08,10.3,130.0,"16:47:52",1
"21/04/03","17:00",0.0,20.7,52.8,1012.1,149.2,2.2,4.2,171.3,0.09,10.8,130.0,"16:55:12",1
"21/04/03","17:10",0.0,20.5,54.1,1012.1,127.0,3.0,5.7,108.9,0.10,11.0,130.0,"17:09:36",1
"21/04/03","17:20",0.0,20.3,54.6,1011.9,140.4,2.2,4.7,123.0,0.08,10.9,130.0,"17:11:20",1
"21/04/03","17:30",0.0,20.4,55.6,1011.9,134.5,2.0,4.2,119.9,0.06,11.3,130.0,"17:27:20",1
"21/04/03","17:40",0.0,20.3,54.9,1012.1,150.1,2.2,3.9,124.3,0.05,11.0,130.0,"17:35:04",1
"21/04/03","17:50",0.0,19.8,56.1,1012.1,130.5,2.6,4.9,111.3,0.03,10.8,130.0,"17:45:12",1
"21/04/03","18:00",0.0,19.5,56.9,1011.6,129.0,2.7,5.1,126.1,0.01,10.8,130.0,"17:59:20",1
"21/04/03","18:10",0.0,19.2,57.7,1012.1,136.1,2.5,4.8,120.8,0.00,10.7,130.0,"18:00:24",1
"21/04/03","18:20",0.0,19.0,58.4,1012.1,134.0,2.1,3.7,119.5,0.00,10.7,130.0,"18:19:28",1
"21/04/03","18:30",0.0,18.8,59.3,1011.9,131.9,2.1,3.2,164.1,0.00,10.7,130.0,"18:23:12",1
"21/04/03","18:40",0.0,18.5,60.6,1012.1,120.1,2.3,4.5,121.4,0.00,10.8,130.0,"18:33:44",1
"21/04/03","18:50",0.0,18.3,61.3,1012.1,120.3,2.2,4.9,116.6,0.00,10.8,130.0,"18:43:36",1
"21/04/03","19:00",0.0,18.2,61.7,1012.1,128.6,1.8,4.5,123.2,0.00,10.8,130.0,"18:50:16",1
"21/04/03","19:10",0.0,18.0,62.9,1011.9,123.1,1.8,3.3,150.7,0.00,10.9,130.0,"19:00:32",1
"21/04/03","19:20",0.0,17.8,63.7,1012.1,129.4,1.3,2.6,124.4,0.00,10.9,130.0,"19:18:48",1
"21/04/03","19:30",0.0,17.7,63.8,1012.3,85.9,0.7,3.1,127.7,0.00,10.8,130.0,"19:21:12",1
"21/04/03","19:40",0.0,17.2,65.3,1012.3,327.0,0.8,1.7,340.6,0.00,10.7,130.0,"19:35:28",1
"21/04/03","19:50",0.0,16.7,67.5,1012.6,331.3,1.6,2.2,339.5,0.00,10.7,130.0,"19:43:52",1
"21/04/03","20:00",0.0,15.9,69.0,1011.9,307.7,1.0,1.2,316.4,0.00,10.3,130.0,"19:53:44",1
"21/04/03","20:10",0.0,15.9,70.3,1012.8,330.0,1.1,1.7,339.2,0.00,10.5,130.0,"20:02:56",1
"21/04/03","20:20",0.0,15.7,71.3,1012.6,311.1,1.1,1.8,308.3,0.00,10.6,130.0,"20:19:52",1
"21/04/03","20:30",0.0,15.5,72.1,1012.6,308.5,1.1,1.7,330.1,0.00,10.5,130.0,"20:20:08",1
"21/04/03","20:40",0.0,15.4,73.1,1012.8,311.6,1.2,1.4,315.1,0.00,10.7,130.0,"20:31:04",1
"21/04/03","20:50",0.0,15.3,74.3,1012.6,333.5,1.2,1.9,331.1,0.00,10.8,130.0,"20:44:16",1
"21/04/03","21:00",0.0,15.1,75.7,1012.8,317.0,1.2,1.6,310.8,0.00,10.9,130.0,"20:54:48",1
"21/04/03","21:10",0.0,14.8,77.0,1012.6,295.8,1.0,1.2,317.7,0.00,10.9,130.0,"21:00:40",1
"21/04/03","21:20",0.0,14.7,78.0,1012.6,307.3,1.0,1.3,312.4,0.00,10.9,130.0,"21:19:44",1
"21/04/03","21:30",0.0,14.7,78.7,1012.6,285.9,1.1,1.4,322.9,0.00,11.1,130.0,"21:20:08",1
"21/04/03","21:40",0.0,14.8,79.1,1012.3,296.7,1.5,1.7,302.7,0.00,11.3,130.0,"21:32:08",1
"21/04/03","21:50",0.0,14.6,79.4,1012.1,295.4,1.2,1.7,289.4,0.00,11.1,130.0,"21:49:20",1
"21/04/03","22:00",0.0,14.3,79.6,1012.3,313.0,1.3,1.8,318.6,0.00,10.9,130.0,"21:52:00",1
"21/04/03","22:10",0.0,14.0,79.9,1012.1,282.0,0.7,1.3,269.6,0.00,10.6,130.0,"22:08:48",1
"21/04/03","22:20",0.0,13.7,80.2,1012.3,282.7,0.8,1.2,292.5,0.00,10.4,130.0,"22:12:48",1
"21/04/03","22:30",0.0,13.4,80.8,1012.3,290.2,1.1,1.6,300.0,0.00,10.2,130.0,"22:26:32",1
"21/04/03","22:40",0.0,13.2,81.4,1012.3,294.0,1.0,1.2,292.9,0.00,10.1,130.0,"22:30:16",1
"21/04/03","22:50",0.0,13.1,82.2,1011.9,280.7,1.2,1.9,292.7,0.00,10.2,130.0,"22:47:34",1
"21/04/03","23:00",0.0,13.1,83.0,1012.3,292.9,1.3,1.7,269.4,0.00,10.3,130.0,"22:50:08",1
"21/04/03","23:10",0.0,13.0,83.8,1012.3,294.3,1.5,1.9,295.8,0.00,10.4,130.0,"23:08:08",1
"21/04/03","23:20",0.0,13.0,84.4,1012.1,318.9,1.6,2.1,315.2,0.00,10.5,130.0,"23:10:32",1
"21/04/03","23:30",0.0,12.8,84.8,1012.1,327.1,1.2,1.6,323.1,0.00,10.3,130.0,"23:20:24",1
"21/04/03","23:40",0.0,12.4,85.3,1012.1,317.3,1.2,1.6,324.5,0.00,10.0,130.0,"23:39:58",1
"21/04/03","23:50",0.0,12.1,85.6,1011.6,309.2,1.1,1.7,323.0,0.00,9.8,130.0,"23:40:44",1
"21/04/03","24:00",0.0,12.0,86.0,1011.6,296.7,1.0,1.4,319.5,0.00,9.8,130.0,"23:51:34",1
